• In Uzbekistan
  • List of Countries
  • For 7 days
  • Water Temperature
  • Satellite Maps
  • Weather Map
  • Weather Widgets
  • user-avatar
    Login

    Hourly Weather Garissa

    Today, 17 October, Wednesday

    Time Temperature Precipitation Wind Pressure Humidity
    00:00 +30°C° 0 mm 6 mps 746 mmHg 64%
    01:00 +29°C° 0 mm 6 mps 746 mmHg 67%
    02:00 +29°C° 0 mm 6 mps 745 mmHg 70%
    03:00 +28°C° 0 mm 5 mps 745 mmHg 73%
    04:00 +28°C° 0 mm 5 mps 745 mmHg 75%
    05:00 +28°C° 0 mm 5 mps 746 mmHg 77%
    06:00 +27°C° 0 mm 4 mps 746 mmHg 78%
    07:00 +28°C° 0 mm 4 mps 746 mmHg 74%
    08:00 +29°C° 0 mm 4 mps 746 mmHg 69%
    09:00 +30°C° 0 mm 4 mps 747 mmHg 63%
    10:00 +32°C° 0 mm 4 mps 746 mmHg 57%
    11:00 +34°C° 0 mm 3 mps 746 mmHg 52%
    12:00 +35°C° 0 mm 3 mps 745 mmHg 46%
    13:00 +36°C° 0 mm 4 mps 744 mmHg 43%
    14:00 +36°C° 0 mm 4 mps 744 mmHg 40%
    15:00 +37°C° 0 mm 4 mps 743 mmHg 37%
    16:00 +37°C° 0 mm 5 mps 743 mmHg 38%
    17:00 +36°C° 0 mm 5 mps 743 mmHg 40%
    18:00 +36°C° 0 mm 6 mps 743 mmHg 42%
    19:00 +35°C° 0 mm 6 mps 743 mmHg 46%
    20:00 +34°C° 0 mm 7 mps 744 mmHg 51%
    21:00 +33°C° 0 mm 7 mps 744 mmHg 55%
    22:00 +32°C° 0 mm 7 mps 744 mmHg 58%
    23:00 +30°C° 0 mm 6 mps 744 mmHg 62%

    Tomorrow, 18 October, Thursday

    Time Temperature Precipitation Wind Pressure Humidity
    00:00 +30°C° 0 mm 6 mps 745 mmHg 65%
    01:00 +29°C° 0 mm 6 mps 744 mmHg 67%
    02:00 +28°C° 0 mm 5 mps 744 mmHg 69%
    03:00 +28°C° 0 mm 5 mps 744 mmHg 72%
    04:00 +28°C° 0 mm 4 mps 744 mmHg 73%
    05:00 +27°C° 0 mm 4 mps 745 mmHg 75%
    06:00 +27°C° 0 mm 4 mps 745 mmHg 77%
    07:00 +28°C° 0 mm 4 mps 745 mmHg 73%
    08:00 +29°C° 0 mm 4 mps 746 mmHg 68%
    09:00 +30°C° 0 mm 4 mps 746 mmHg 64%
    10:00 +32°C° 0 mm 4 mps 746 mmHg 58%
    11:00 +33°C° 0 mm 4 mps 746 mmHg 52%
    12:00 +35°C° 0 mm 4 mps 745 mmHg 46%
    13:00 +36°C° 0 mm 4 mps 744 mmHg 42%
    14:00 +37°C° 0 mm 4 mps 743 mmHg 39%
    15:00 +37°C° 0 mm 5 mps 742 mmHg 35%
    16:00 +37°C° 0 mm 5 mps 742 mmHg 37%
    17:00 +36°C° 0 mm 6 mps 742 mmHg 39%
    18:00 +36°C° 0 mm 6 mps 742 mmHg 41%
    19:00 +35°C° 0 mm 6 mps 743 mmHg 43%
    20:00 +34°C° 0 mm 6 mps 744 mmHg 46%
    21:00 +34°C° 0 mm 7 mps 744 mmHg 49%
    22:00 +32°C° 0 mm 7 mps 744 mmHg 54%
    23:00 +30°C° 0 mm 6 mps 745 mmHg 60%

    Day after tomorrow, 19 October, Friday

    Time Temperature Precipitation Wind Pressure Humidity
    00:00 +29°C° 0 mm 6 mps 745 mmHg 65%
    01:00 +29°C° 0 mm 6 mps 745 mmHg 68%
    02:00 +28°C° 0 mm 5 mps 744 mmHg 70%
    03:00 +27°C° 0 mm 5 mps 744 mmHg 73%
    04:00 +27°C° 0 mm 4 mps 745 mmHg 74%
    05:00 +27°C° 0 mm 4 mps 745 mmHg 76%
    06:00 +27°C° 0 mm 4 mps 745 mmHg 78%
    07:00 +28°C° 0 mm 4 mps 746 mmHg 72%
    08:00 +29°C° 0 mm 4 mps 746 mmHg 66%
    09:00 +30°C° 0 mm 4 mps 747 mmHg 60%
    10:00 +33°C° 0 mm 3 mps 746 mmHg 52%
    11:00 +34°C° 0 mm 3 mps 746 mmHg 44%
    12:00 +36°C° 0 mm 3 mps 745 mmHg 36%
    13:00 +37°C° 0 mm 4 mps 744 mmHg 32%
    14:00 +38°C° 0 mm 4 mps 743 mmHg 29%
    15:00 +40°C° 0 mm 4 mps 742 mmHg 26%
    16:00 +38°C° 0 mm 4 mps 742 mmHg 26%
    17:00 +39°C° 0 mm 5 mps 742 mmHg 26%
    18:00 +39°C° 0 mm 5 mps 742 mmHg 26%
    19:00 +38°C° 0 mm 6 mps 743 mmHg 31%
    20:00 +35°C° 0 mm 6 mps 744 mmHg 36%
    21:00 +34°C° 0 mm 7 mps 745 mmHg 41%
    22:00 +33°C° 0 mm 7 mps 745 mmHg 47%
    23:00 +32°C° 0 mm 7 mps 745 mmHg 52%

    20 October, Saturday

    Time Temperature Precipitation Wind Pressure Humidity
    00:00 +29°C° 0 mm 6 mps 745 mmHg 58%
    01:00 +29°C° 0 mm 6 mps 745 mmHg 60%
    02:00 +28°C° 0 mm 5 mps 745 mmHg 62%
    03:00 +28°C° 0 mm 5 mps 745 mmHg 65%
    04:00 +27°C° 0 mm 4 mps 745 mmHg 68%
    05:00 +27°C° 0 mm 4 mps 746 mmHg 70%
    06:00 +27°C° 0 mm 3 mps 746 mmHg 73%
    07:00 +28°C° 0 mm 4 mps 747 mmHg 68%
    08:00 +29°C° 0 mm 4 mps 747 mmHg 63%
    09:00 +30°C° 0 mm 4 mps 748 mmHg 58%
    10:00 +33°C° 0 mm 4 mps 747 mmHg 51%
    11:00 +34°C° 0 mm 4 mps 746 mmHg 44%
    12:00 +36°C° 0 mm 4 mps 746 mmHg 37%
    13:00 +37°C° 0 mm 4 mps 745 mmHg 34%
    14:00 +38°C° 0 mm 4 mps 744 mmHg 31%
    15:00 +40°C° 0 mm 4 mps 743 mmHg 28%
    16:00 +38°C° 0 mm 4 mps 743 mmHg 27%
    17:00 +38°C° 0 mm 4 mps 743 mmHg 27%
    18:00 +38°C° 0 mm 4 mps 743 mmHg 27%
    19:00 +37°C° 0 mm 5 mps 744 mmHg 31%
    20:00 +36°C° 0 mm 6 mps 744 mmHg 36%
    21:00 +35°C° 0 mm 7 mps 745 mmHg 41%
    22:00 +34°C° 0 mm 7 mps 745 mmHg 48%
    23:00 +32°C° 0 mm 7 mps 745 mmHg 56%

    21 October, Sunday

    Time Temperature Precipitation Wind Pressure Humidity
    00:00 +30°C° 0 mm 7 mps 745 mmHg 63%
    01:00 +29°C° 0 mm 6 mps 745 mmHg 66%
    02:00 +29°C° 0 mm 6 mps 745 mmHg 70%
    03:00 +28°C° 0 mm 5 mps 745 mmHg 73%
    04:00 +28°C° 0 mm 5 mps 745 mmHg 74%
    05:00 +28°C° 0 mm 5 mps 746 mmHg 75%
    06:00 +28°C° 0 mm 5 mps 746 mmHg 76%
    07:00 +28°C° 0 mm 5 mps 747 mmHg 73%
    08:00 +29°C° 0 mm 5 mps 747 mmHg 69%
    09:00 +29°C° 0 mm 5 mps 748 mmHg 65%
    10:00 +32°C° 0 mm 5 mps 747 mmHg 58%
    11:00 +33°C° 0 mm 5 mps 746 mmHg 52%
    12:00 +35°C° 0 mm 5 mps 746 mmHg 45%
    13:00 +36°C° 0 mm 5 mps 745 mmHg 41%
    14:00 +37°C° 0 mm 4 mps 744 mmHg 37%
    15:00 +38°C° 0 mm 4 mps 743 mmHg 33%
    16:00 +37°C° 0 mm 5 mps 743 mmHg 34%
    17:00 +37°C° 0 mm 5 mps 744 mmHg 34%
    18:00 +37°C° 0 mm 5 mps 744 mmHg 35%
    19:00 +36°C° 0 mm 6 mps 745 mmHg 39%
    20:00 +35°C° 0 mm 7 mps 745 mmHg 44%
    21:00 +34°C° 0 mm 8 mps 746 mmHg 49%
    22:00 +33°C° 0.1 mm 8 mps 746 mmHg 55%
    23:00 +30°C° 0.1 mm 7 mps 746 mmHg 61%

    22 October, Monday

    Time Temperature Precipitation Wind Pressure Humidity
    00:00 +29°C° 0.1 mm 7 mps 746 mmHg 67%
    01:00 +29°C° 0 mm 7 mps 746 mmHg 69%
    02:00 +28°C° 0 mm 7 mps 745 mmHg 71%
    03:00 +28°C° 0 mm 6 mps 745 mmHg 72%
    04:00 +28°C° 0 mm 6 mps 746 mmHg 73%
    05:00 +28°C° 0 mm 6 mps 746 mmHg 74%
    06:00 +27°C° 0 mm 6 mps 747 mmHg 75%
    07:00 +28°C° 0 mm 6 mps 747 mmHg 72%
    08:00 +28°C° 0 mm 6 mps 748 mmHg 69%
    09:00 +29°C° 0 mm 7 mps 748 mmHg 66%
    10:00 +30°C° 0 mm 7 mps 747 mmHg 60%
    11:00 +33°C° 0 mm 7 mps 746 mmHg 53%
    12:00 +34°C° 0 mm 7 mps 746 mmHg 47%
    13:00 +36°C° 0 mm 7 mps 745 mmHg 42%
    14:00 +38°C° 0 mm 7 mps 744 mmHg 37%
    15:00 +39°C° 0 mm 7 mps 743 mmHg 32%
    16:00 +38°C° 0 mm 7 mps 744 mmHg 35%
    17:00 +37°C° 0 mm 8 mps 744 mmHg 38%
    18:00 +35°C° 0 mm 8 mps 744 mmHg 41%
    19:00 +34°C° 0 mm 8 mps 745 mmHg 45%
    20:00 +33°C° 0 mm 9 mps 746 mmHg 50%
    21:00 +32°C° 0 mm 9 mps 747 mmHg 55%
    22:00 +31°C° 0 mm 9 mps 747 mmHg 57%
    23:00 +29°C° 0 mm 8 mps 747 mmHg 60%
    Show more